Showing default

GONETS D1 9, 27060

Orbit data source: Space-Track

GONETS D1 9, 27060 is a payload satellite owned by Gonets (CIS) in LEO that was launched on Fri, 28 Dec 2001 UTC via a TSIKLON-3 launch vehicle from the Plesetsk Missile And Space Complex (PKMTR). Payloads include a variety of satellites, spacecraft, and rockets equipped with specific instruments for various scientific and technological missions. These include communications satellites like Starlink; space stations such as the ISS; scientific satellites like the Hubble; Earth observation satellites from companies like Planet Labs, Umbra, and HawkEye 360; GPS; miniature CubeSats for education and research; and military/defense satellites.

Loading next visibility...
GONETS D1 9 details
Identifier
27060, 2001-058F
Orbit
LEO
Last TLE update9 hours ago
Origin
Flag of CISGonets (CIS)
ManufacturerNPO PM
MissionNon-operational Civil Communications
Bus & MotorSTRELA-3, Unknown motor
Mass225 kg wet, 225 kg dry
Launch date (UTC)
2001-12-28 (23 years ago)
Launch vehicle
TSIKLON-3
Launch site
Plesetsk Missile And Space Complex (PKMTR)
Object type
Payload
Rocket body
Debris
Shape & HBRCyl + 1 Ant, 7 m
Radar Cross Section1.798 m², Medium (>0.1 m² and < 1m²)

Expand to show TLE details & history

TLE from 9 hours ago
0 GONETS D1 9
1 27060U 01058F   25025.46427601  .00000030  00000-0  10926-3 0  9997
2 27060  82.5428 162.1095 0008362  24.0425 336.1056 12.63047472 63735
Epoch: 2025-01-25T11:08Z
Definitive object data (Epoch: 2025-01-25T11:08:33.447Z)
Latitude0.00006°
Longitude-130.04257°
Altitude1,407.166 km
Speed7.159 km/s
True Right ascension10h 48m 26s
True Declination0° 00' 00"
Sunlit
Object was in full shadow at TLE epoch
Visualization TLE readout
Latitude-35.15693°
Longitude-135.55508°
Altitude1,420.126 km
Speed7.151 km/s
Apparent Right ascension10h 10m 04s
Apparent Declination-37° 13' 20"
Sunlit
Object is in daylight
Visualization observer readout
Local Sidereal Time21:48:48
Azimuth301.268° NW
Elevation-85.048°
Doppler factor1
Orbital elements
Apogee altitude1,414.223 km
Perigee altitude1,401.202 km
Semi-major axis7,785.849 km
Eccentricity0.0008362
Inclination82.5428°
RAAN162.1095°
Arg. of periapsis24.0425°
True anomaly336.06675°
Mean anomaly336.1056°
Eccentric anomaly336.08618°
Mean motion3.15925 °/min
BSTAR0.00010926
Orbital period113.95 mins
Loading maneuver chart data...
Loading historical data...
Loading historical data...
Loading historical data...
Loading historical data...
Loading historical data...
Loading historical data...
Loading historical data...

GONETS D1 9 Visibility forecast

Observer location: undefined°, undefined

Span
Click to sort rows by Start time (UTC) header in descending order
Start Az.
Max El. time (UTC)
Max El. Az.
Max El.
End time (UTC)
End Az.
15 mins2025-01-25 21:15:41.929Z346.296° N2025-01-25 21:22:41.929Z286.895° WNW42.488°2025-01-25 21:30:41.929Z187.879° SSW
10 mins2025-01-26 08:11:41.929Z120.337° SE2025-01-26 08:15:41.929Z85.795° E21.887°2025-01-26 08:21:41.929Z35.78° NE
14 mins2025-01-26 10:03:41.929Z200.187° SSW2025-01-26 10:10:41.929Z297.371° NW42.499°2025-01-26 10:17:41.929Z1.526° NNE
4 mins2025-01-26 12:05:41.929Z292.189° WNW2025-01-26 12:06:41.929Z299.612° NW11.698°2025-01-26 12:09:41.929Z321.436° NNW
14 mins2025-01-26 20:04:41.929Z5.636° NNE2025-01-26 20:11:41.929Z82.697° E37.612°2025-01-26 20:18:41.929Z148.934° SSE
|